Monticello, KY

3:05 PM EST on December 05, 2019 (GMT -0500)
Wayne County

Weather History for KEKQ - September, 2019

Change the Weather History Date:

Thursday, September 5, 2019

  Actual Average Record
Temperature  
Mean Temperature 70 °F -  
Max Temperature 82 °F 83 °F 97 °F (2007)
Min Temperature 57 °F 60 °F 43 °F (2010)
Cooling Degree Days 4    
Growing Degree Days 20 (Base 50)    
Moisture  
Dew Point 61 °F    
Average Humidity 79    
Maximum Humidity 100    
Minimum Humidity 51    
Precipitation  
Precipitation 0.00 in - - ()
Sea Level Pressure  
Sea Level Pressure 30.02 in    
Wind  
Wind Speed 9 mph (North)    
Max Wind Speed 20 mph    
Max Gust Speed 24 mph    
Visibility 10 miles    
Events      
Averages and records for this station are not official NWS values.
T = Trace of Precipitation, MM = Missing Value Source: NWS Daily Summary

Daily Weather History Graph

Daily Weather History Graph

Search for Another Location

Airport or City:

Astronomy

Sep. 05, 2019 Rise Set
Actual Time 6:13 AM CDT 7:02 PM CDT
Civil Twilight 5:47 AM CDT 7:28 PM CDT
Nautical Twilight 5:15 AM CDT 7:59 PM CDT
Astronomical Twilight 4:43 AM CDT 8:31 PM CDT
Moon 1:09 PM CDT 11:28 PM CDT
Length of Visible Light 13h 41m
Length of Day
12h 48m
Waxing Crescent, 45% of the Moon is Illuminated
Sep 5
Waxing Crescent
Sep 5
First Quarter
Sep 13
Full
Sep 21
Last Quarter
Sep 28
New

Hourly Weather History & Observations

Time (CDT) Temp. Heat Index Dew Point Humidity Pressure Visibility Wind Dir Wind Speed Gust Speed Precip Events Conditions
12:56 AM 66.9 °F - 62.1 °F 84% 30.02 in 10.0 mi West 8.1 mph - N/A   Clear
1:56 AM 62.1 °F - 61.0 °F 96% 30.02 in 10.0 mi Variable 4.6 mph - N/A   Clear
2:56 AM 60.1 °F - 59.0 °F 96% 30.01 in 10.0 mi Calm Calm - N/A   Clear
3:56 AM 59.0 °F - 57.9 °F 96% 30.02 in 10.0 mi Variable 5.8 mph - N/A   Clear
4:56 AM 57.0 °F - 57.0 °F 100% 30.02 in 10.0 mi Variable 5.8 mph - N/A   Clear
5:56 AM 57.9 °F - 57.0 °F 97% 30.04 in 10.0 mi NNE 8.1 mph - N/A   Clear
6:56 AM 59.0 °F - 59.0 °F 100% 30.05 in 10.0 mi NE 9.2 mph - N/A   Clear
7:56 AM 66.0 °F - 63.0 °F 90% 30.05 in 10.0 mi NNE 15.0 mph - N/A   Clear
8:56 AM 70.0 °F - 64.0 °F 81% 30.06 in 10.0 mi NNW 9.2 mph - N/A   Clear
9:56 AM 73.9 °F - 64.9 °F 73% 30.06 in 10.0 mi North 11.5 mph 17.3 mph N/A   Clear
10:56 AM 77.0 °F - 66.9 °F 71% 30.05 in 10.0 mi NNW 11.5 mph 19.6 mph N/A   Clear
11:56 AM 79.0 °F - 64.9 °F 62% 30.04 in 10.0 mi NNE 19.6 mph 24.2 mph N/A   Scattered Clouds
12:56 PM 80.1 °F 81.9 °F 64.9 °F 60% 30.02 in 10.0 mi NNW 11.5 mph 20.7 mph N/A   Scattered Clouds
1:56 PM 82.0 °F 83.4 °F 64.0 °F 54% 30.01 in 10.0 mi North 17.3 mph 24.2 mph N/A   Partly Cloudy
2:56 PM 82.0 °F 83.0 °F 62.1 °F 51% 29.99 in 10.0 mi North - - N/A   Clear
3:56 PM 82.0 °F 83.0 °F 62.1 °F 51% 29.99 in 10.0 mi North 13.8 mph - N/A   Clear
4:56 PM 82.0 °F 83.0 °F 62.1 °F 51% 29.99 in 10.0 mi NNE 18.4 mph - N/A   Clear
5:56 PM 80.1 °F 81.2 °F 62.1 °F 54% 29.99 in 10.0 mi North 18.4 mph - N/A   Scattered Clouds
6:56 PM 73.9 °F - 61.0 °F 64% 30.00 in 10.0 mi North 16.1 mph - N/A   Clear
7:56 PM 68.0 °F - 61.0 °F 78% 30.01 in 10.0 mi NNE 13.8 mph - N/A   Clear
8:56 PM 64.0 °F - 61.0 °F 90% 30.02 in 10.0 mi NNE 12.7 mph - N/A   Clear
9:56 PM 62.1 °F - 60.1 °F 93% 30.02 in 10.0 mi Variable 6.9 mph - N/A   Clear
10:44 PM 59.0 °F - 57.2 °F 94% - 10.0 mi WNW 8.1 mph - N/A   Clear
10:56 PM 59.0 °F - 57.9 °F 96% 30.02 in 10.0 mi West 6.9 mph - N/A   Clear
11:56 PM 57.0 °F - 55.9 °F 96% 30.01 in 10.0 mi North 10.4 mph - N/A   Clear